"Pseudo-MPEC" for C07HG32

Created 2019 Feb 15 22:18:08 UT using Find_Orb

Click here for an explanation of pseudo-MPECs

 
 Astrometry: 
     C07HG32  C2019 02 12.34924 11 58 19.35 +04 06 15.2    ~2C9I 20.4 GVNEOCPG96
     C07HG32  C2019 02 12.35483 11 58 17.03 +04 05 27.5    ~2C9I 20.3 GVNEOCPG96
     C07HG32  C2019 02 12.36042 11 58 14.69 +04 04 39.9    ~2C9I 20.4 GVNEOCPG96
     C07HG32  C2019 02 12.36601 11 58 12.40 +04 03 53.1    ~2C9I 20.4 GVNEOCPG96
     C07HG32 KC2019 02 12.39472011 58 00.42 +03 59 45.6    ~2CA3 19.6 GVNEOCPV03
     C07HG32 KC2019 02 12.39780311 57 59.19 +03 59 19.3    ~2CA3 19.9 GVNEOCPV03
     C07HG32 KC2019 02 12.40086311 57 57.92 +03 58 53.5    ~2CA3 19.5 GVNEOCPV03
     C07HG32  C2019 02 12.46201 11 57 32.44 +03 50 15.9    ~2CBX 19.9 GVNEOCPI52
     C07HG32  C2019 02 12.46298 11 57 32.07 +03 50 07.6    ~2CBX 20.5 GVNEOCPI52
     C07HG32  C2019 02 12.46400 11 57 31.63 +03 49 58.9    ~2CBX 20.2 GVNEOCPI52
     C07HG32  C2019 02 12.46497 11 57 31.20 +03 49 50.7    ~2CBX 20.4 GVNEOCPI52
     C07HG32  C2019 02 12.53690 11 57 01.39 +03 39 36.2    ~2CDI 20.4 GVNEOCPI52
     C07HG32  C2019 02 12.53731 11 57 01.21 +03 39 33.1    ~2CDI 20.6 GVNEOCPI52
     C07HG32  C2019 02 12.53773 11 57 01.08 +03 39 29.5    ~2CDI 20.1 GVNEOCPI52
     C07HG32  C2019 02 12.53815 11 57 00.87 +03 39 26.3    ~2CDI 19.7 GVNEOCPI52
     C07HG32 KC2019 02 12+R;(YhCAstrometrya8wZUlCqdr.+h$nPx`*tJ6Mer`S;HEl(T1N474
     C07HG32 KC2019 02 12$Dredacted;H(ly'-]UWs(Cliva7B.sP?G(!/D:jH88*_kelOA##474
     C07HG32 KC2019 02 12sVI7WQlAua1wSI\8o!^xBb.Il_3*X+:(vL3Bmc)$:7'v)PxhNtPO474
     C07HG32 KC2019 02 13%0$?lTEvlCZJ]qR4T\fB1`clickL:5?l0qe5[i.NCT.sFQSqh$#YL01
     C07HG32 pC2019 02 13d!VNru=SdK[aYC[NhQ=m.?mb[rkc\/dm76hTD-YYn9#)s+LJH?XBL01
     C07HG32 KC2019 02 13xZ^'uSo)QVb0%!3here.t?ZDASV=R6Gggve!Z'(/4x8eT!vYcBQ\L01
     C07HG32 KC2019 02 13pvC]cse.*m=rE0^T1Z3gw/Z@H8*T3*08m^:XlxLcqqs/K*C9L@DTL01
     C07HG32 KC2019 02 14.08295711 46 27.91 -00 04 06.2    ~2E33 20.7 GVNEOCPJ95
     C07HG32 KC2019 02 14.10306011 46 19.15 -00 07 03.3    ~2E33 20.0 GVNEOCPJ95
     C07HG32 |C2019 02 14'*D?x\30N2\8].1F3piv/)@KgdRgx3LwR$Y?for4.+qBYehl[WMW807
     C07HG32 |C2019 02 14#g,2S,62Kt1vNTU:B!uTN-O^_4t$k;dGwg3(8an46HCPDE%RM2'f807
     C07HG32 |C2019 02 14n.KE/N2v0K7$9M]W%\]WcI_Ou.CJoyrXJ=AexplanationRP=cUT807
     C07HG32 KC2019 02 15.09481111 39 17.28 -02 33 17.7    ~2F3X 20.3 GVNEOCPJ95
     C07HG32 KC2019 02 15.10925711 39 10.86 -02 35 26.1    ~2F3X 20.0 GVNEOCPJ95
     C07HG32 KC2019 02 15.13581011 38 59.09 -02 39 22.7    ~2F3X 19.9 GVNEOCPJ95

Station data:
(474) Mount John Observatory, Lake Tekapo  (S43.987388 E170.464960)  New
   Zealand.  Observers A. C. Gilmore, P. M. Kilmartin. Measurer P. M.
   Kilmartin. 1.0-m f/7.7 reflector + CCD.
(807) Cerro Tololo Observatory, La Serena  (S30.169136 W70.805900)  Chile.
   1.5-m Ritchey-Chrétien.
(G96) Mt. Lemmon Survey  (N32.442754 W110.788720)  US/Arizona.  Observers B.
   M. Africano, E. J. Christensen, G. A. Farneth, D. C. Fuls, A. R. Gibbs, A.
   D. Grauer, H. Groeller, J. A. Johnson, R. A. Kowalski, S. M. Larson, G. J.
   Leonard, R. L. Seaman, F. C. Shelly. 1.5-m reflector + 10K CCD.
(I52) Steward Observatory, Mt. Lemmon Station  (N32.442547 W110.788920)
   US/Arizona.  Observers B. M. Africano, E. J. Christensen, G. A. Farneth,
   D. C. Fuls, A. R. Gibbs, A. D. Grauer, H. Groeller, J. A. Johnson, R. A.
   Kowalski, S. M. Larson, G. J. Leonard, R. L. Seaman, F. C. Shelly. 1.0-m
   reflector + CCD.
(J95) Great Shefford  (N51.474969 W1.447003)  UK.  Observer P. Birtwhistle.
   0.40-m f/6.0 Schmidt-Cassegrain + CCD.
(L01) Višnjan Observatory, Tičan  (N45.290900 E13.749300)  Croatia.
   Observers K. Korlević, E. Pettarin. Measurer E. Pettarin. 1.0-m f/2.9
   reflector + CCD.
(V03) Big Water  (N37.083379 W111.668600)  US/Utah.  Observer D. Rankin.
   0.30-m reflector + CCD.

Orbital elements:  C07HG32
   Perihelion 2019 Jan 23.462248 +/- 0.181 TT = 11:05:38 (JD 2458506.962248)
Epoch 2019 Feb 15.0 TT = JDT 2458529.5   Earth MOID: 0.1664   AutoNEOCP
M  12.49852095 +/- 0.16             (J2000 ecliptic)
n   0.55455933 +/- 0.00301          Peri.  161.32366 +/- 0.16
a   1.46724972 +/- 0.00531          Node   329.57558 +/- 0.017
e   0.2199821 +/- 0.00231           Incl.   34.16374 +/- 0.12
P   1.78/649.15d           H 22.5   G  0.15   U  8.8  
q 1.14448096 +/- 0.000754    Q 1.79001848 +/- 0.00982
From 30 observations 2019 Feb. 12-15; mean residual 0".32
Residuals in arcseconds: 
190212 G96  .47+  .23+    190212 I52  .28-  .01+    190213 L01  .09-  .06-    
190212 G96  .39+  .02-    190212 I52  .08-  .67-    190213 L01  .36+  .11-    
190212 G96  .04+  .17-    190212 I52  .24-  .26-    190214 J95  .21+  .33+    
190212 G96  .46+  .50+    190212 I52  .41+  .28-    190214 J95  .91-  .05+    
190212 V03  .71-  .02+    190212 I52  .14-  .11+    190214 807  .19+  .16-    
190212 V03  .02+  .07-    190212 474  .09+  .40-    190214 807  .22+  .18+    
190212 V03  .02+  .14+    190212 474  .11+  .51-    190214 807  .28+  .72+    
190212 I52  .15-  .01-    190212 474  .43+  .47+    190215 J95  .46+  .14+    
190212 I52  .35+  .05-    190213 L01  .06+  .29-    190215 J95  .08+  .11+    
190212 I52  .12+  .05-    190213 L01  .19-  .45-    190215 J95  .17-  .52-    

Ephemerides (geocentric):
Date (UTC) HH   RA              Dec         delta   r     elong  mag " sig PA
---- -- -- --  -------------   -----------  ------ ------ -----  --- ---- ---
2019 02 15 22  11 33 20.235   -04 34 36.60  .19155 1.1579 150.2 20.4 .279 173
2019 02 15 23  11 33 01.966   -04 40 47.83  .19152 1.1580 150.3 20.4 .287 173
2019 02 16 00  11 32 43.682   -04 46 59.05  .19150 1.1580 150.3 20.4 .295 173
2019 02 16 01  11 32 25.383   -04 53 10.26  .19148 1.1581 150.4 20.4 .303 173
2019 02 16 02  11 32 07.068   -04 59 21.46  .19146 1.1581 150.4 20.4 .312 173
2019 02 16 03  11 31 48.739   -05 05 32.64  .19144 1.1582 150.4 20.4 .320 172
2019 02 16 04  11 31 30.395   -05 11 43.79  .19143 1.1582 150.5 20.4 .329 172
2019 02 16 05  11 31 12.036   -05 17 54.91  .19141 1.1583 150.5 20.4 .337 172
2019 02 16 06  11 30 53.663   -05 24 06.00  .19139 1.1583 150.6 20.4 .346 172
2019 02 16 07  11 30 35.275   -05 30 17.04  .19138 1.1584 150.6 20.4 .355 172
2019 02 16 08  11 30 16.873   -05 36 28.04  .19137 1.1584 150.6 20.4 .364 172
2019 02 16 09  11 29 58.456   -05 42 38.99  .19135 1.1585 150.7 20.4 .374 172
2019 02 16 10  11 29 40.025   -05 48 49.88  .19134 1.1585 150.7 20.4 .383 172
2019 02 16 11  11 29 21.580   -05 55 00.72  .19133 1.1586 150.7 20.4 .393 172
2019 02 16 12  11 29 03.121   -06 01 11.48  .19132 1.1586 150.8 20.4 .402 172
2019 02 16 13  11 28 44.649   -06 07 22.17  .19132 1.1587 150.8 20.4 .412 172
2019 02 16 14  11 28 26.162   -06 13 32.79  .19131 1.1587 150.8 20.4 .422 172
2019 02 16 15  11 28 07.662   -06 19 43.33  .19130 1.1588 150.9 20.4 .432 171
2019 02 16 16  11 27 49.148   -06 25 53.77  .19130 1.1588 150.9 20.4 .443 171
2019 02 16 17  11 27 30.621   -06 32 04.13  .19130 1.1589 150.9 20.4 .453 171
2019 02 16 18  11 27 12.080   -06 38 14.39  .19129 1.1589 151.0 20.4 .464 171
2019 02 16 19  11 26 53.526   -06 44 24.54  .19129 1.1590 151.0 20.4 .474 171
2019 02 16 20  11 26 34.959   -06 50 34.59  .19129 1.1590 151.0 20.4 .485 171
2019 02 16 21  11 26 16.379   -06 56 44.52  .19129 1.1591 151.1 20.4 .496 171
2019 02 16 22  11 25 57.786   -07 02 54.34  .19129 1.1591 151.1 20.4 .507 171
2019 02 16 23  11 25 39.180   -07 09 04.03  .19130 1.1592 151.1 20.4 .519 171
2019 02 17 00  11 25 20.561   -07 15 13.59  .19130 1.1592 151.1 20.4 .530 171
2019 02 17 01  11 25 01.930   -07 21 23.02  .19131 1.1593 151.2 20.4 .542 171
2019 02 17 02  11 24 43.286   -07 27 32.32  .19131 1.1593 151.2 20.4 .553 171
2019 02 17 03  11 24 24.630   -07 33 41.46  .19132 1.1593 151.2 20.4 .565 171
2019 02 17 04  11 24 05.962   -07 39 50.46  .19133 1.1594 151.2 20.3 .577 171
2019 02 17 05  11 23 47.281   -07 45 59.31  .19134 1.1594 151.3 20.3 .589 171
2019 02 17 06  11 23 28.588   -07 52 07.99  .19135 1.1595 151.3 20.3 .602 171
2019 02 17 07  11 23 09.884   -07 58 16.51  .19136 1.1595 151.3 20.3 .614 171
2019 02 17 08  11 22 51.167   -08 04 24.86  .19137 1.1596 151.3 20.3 .627 171
2019 02 17 09  11 22 32.439   -08 10 33.04  .19138 1.1596 151.4 20.3 .640 171
2019 02 17 10  11 22 13.699   -08 16 41.03  .19140 1.1597 151.4 20.3 .653 171
2019 02 17 11  11 21 54.948   -08 22 48.85  .19141 1.1597 151.4 20.3 .666 171
2019 02 17 12  11 21 36.185   -08 28 56.47  .19143 1.1598 151.4 20.3 .679 171
2019 02 17 13  11 21 17.411   -08 35 03.89  .19145 1.1598 151.4 20.3 .692 171
2019 02 17 14  11 20 58.626   -08 41 11.12  .19147 1.1599 151.5 20.3 .706 171
2019 02 17 15  11 20 39.830   -08 47 18.14  .19149 1.1599 151.5 20.3 .719 171
2019 02 17 16  11 20 21.023   -08 53 24.95  .19151 1.1600 151.5 20.3 .733 171
2019 02 17 17  11 20 02.205   -08 59 31.54  .19153 1.1600 151.5 20.3 .747 171
2019 02 17 18  11 19 43.376   -09 05 37.91  .19155 1.1601 151.5 20.3 .761 171
2019 02 17 19  11 19 24.537   -09 11 44.06  .19158 1.1601 151.5 20.3 .775 171
2019 02 17 20  11 19 05.687   -09 17 49.98  .19160 1.1602 151.6 20.3 .790 171
2019 02 17 21  11 18 46.827   -09 23 55.66  .19163 1.1603 151.6 20.3 .804 171